Location: Ammerl�gen
(47.2167°N, 9.6000°E)
Time: 04:24:39
(UTC+00:00)

NOAA 19 - Pass Details

Date: 08 December 2021
Orbit: 841 x 860 km, 99.2° (Epoch: 16 January)

Event Time Altitude Azimuth Distance (km) Brightness Sun altitude
Rises 17:45:50 0° 159° (SSE) 3,385 8.2 -21.8°
Reaches altitude 10° 17:48:11 10° 158° (SSE) 2,455 7.5 -22.2°
Maximum altitude 17:53:37 79° 73° (ENE) 865 5.0 -23.1°
Drops below altitude 10° 17:59:07 10° 347° (NNW) 2,482 7.7 -24.1°
Sets 18:01:30 0° 346° (NNW) 3,424 8.4 -24.5°
